Wetbulb
51.11 50.89 51.02 51.05 50.97 51.12 51.39 51.45 51.32 51.34 51.55 51.77 51.85 51.70 51.74 52.16 52.23 47.16 44.12 51.23 53.49 57.31 58.16 48.50 47.10 45.82 44.61 40.18 38.68 36.58 29.60 28.09 32.70 33.97 36.39 37.40 37.00 38.50 39.43 37.69 38.10 41.35 41.64 43.05 54.83
50.87 50.83 50.62 50.59 50.52 50.61 50.81 50.93 50.87 50.88 50.99 51.20 51.38 51.41 51.45 51.36 44.66 41.91 50.21 55.31 56.86 57.61 53.50 50.51 44.77 43.79 39.25 38.95 37.52 34.13 29.30 31.89 38.55 39.18 36.66 38.69 37.00 37.52 36.33 36.77 36.62 38.41 45.65 46.10 54.78
50.06 50.06 50.19 49.63 49.87 50.09 50.34 50.38 50.25 50.45 50.69 50.75 50.89 50.85 50.89 48.49 39.32 41.35 56.82 56.29 56.70 57.75 54.34 52.78 49.46 43.53 37.42 36.71 35.81 34.66 32.62 37.08 39.02 39.84 39.55 38.13 37.11 38.70 35.89 33.86 38.16 39.41 43.58 48.12 53.20
49.80 49.54 49.07 49.06 49.63 50.10 50.15 50.09 50.04 50.07 50.31 50.52 50.69 50.62 50.51 43.96 25.81 45.49 58.51 57.59 57.68 53.98 53.72 47.37 44.83 38.82 35.34 34.66 37.52 31.83 35.34 38.58 39.35 40.47 39.72 37.83 38.76 36.15 36.82 39.58 39.13 39.73 45.68 50.13 52.29
49.02 48.74 48.51 49.02 50.02 50.22 49.90 49.86 49.72 49.81 49.93 50.31 50.46 50.45 45.83 36.62 36.75 46.76 52.08 50.59 48.46 50.46 48.55 47.18 41.54 38.65 34.66 35.55 36.91 33.97 33.90 37.45 39.56 40.02 38.48 39.04 37.21 37.92 36.40 39.83 40.25 41.78 47.38 50.62 52.44
48.88 48.11 48.32 48.63 48.83 49.10 49.21 49.47 49.29 49.32 49.54 49.92 50.07 49.94 41.32 31.81 43.43 46.34 46.14 44.46 47.92 47.86 46.56 45.25 42.26 42.53 38.41 37.12 35.60 36.28 37.00 38.30 38.50 37.86 37.01 36.74 37.45 36.77 37.24 39.92 39.17 41.94 45.02 47.63 50.98
48.64 48.06 48.09 48.51 48.90 48.97 48.99 48.88 48.71 48.81 49.03 49.59 49.26 44.53 38.65 35.56 43.68 45.57 44.28 42.55 43.57 42.74 42.67 46.87 46.53 40.86 39.01 35.54 39.08 38.44 34.15 37.39 37.29 36.88 36.14 38.22 35.14 35.92 39.76 41.07 38.21 37.14 41.68 46.37 49.24
47.61 48.00 48.26 48.58 48.76 48.60 48.77 48.25 48.39 48.51 48.68 48.21 48.67 41.50 35.18 43.37 43.64 43.33 44.47 42.84 44.51 43.80 45.08 49.22 47.12 44.32 38.71 38.69 36.34 32.50 31.40 28.77 36.50 37.30 37.63 38.46 31.63 38.52 42.82 40.93 39.72 36.94 36.54 40.66 45.97
47.95 47.98 48.07 48.09 47.86 47.66 47.80 48.11 48.37 47.95 47.64 46.72 37.29 37.52 33.33 45.46 40.68 44.72 43.48 38.28 37.27 42.18 45.83 47.75 45.78 40.96 37.35 34.38 30.28 29.29 26.59 27.07 30.89 36.79 36.82 36.91 32.94 39.48 41.00 40.29 40.74 41.09 38.24 37.87 40.14
47.52 47.42 47.72 47.69 47.70 47.54 47.98 47.94 46.51 44.46 41.91 40.78 39.28 33.16 36.39 35.94 39.15 37.78 39.10 37.75 34.74 34.66 34.06 40.57 40.05 35.54 36.01 32.14 22.40 25.66 25.15 26.30 26.85 33.25 36.05 33.96 33.66 38.41 40.51 40.94 39.60 39.06 36.90 38.67 38.36
46.60 47.14 47.63 47.81 47.90 47.92 45.39 36.69 31.69 29.80 33.21 28.78 29.29 29.36 31.46 35.50 37.55 35.59 38.02 35.59 34.10 30.77 23.75 29.88 30.66 28.78 31.07 33.39 32.47 31.16 28.78 27.19 30.73 34.84 33.55 33.51 34.58 37.32 39.35 37.79 36.98 36.84 35.83 35.30 38.11
46.73 47.43 47.55 47.56 47.60 47.54 39.51 32.86 33.36 35.63 27.90 33.63 33.27 32.80 34.91 35.73 29.20 32.67 38.10 30.26 28.40 22.62 27.91 26.78 24.40 30.89 35.00 34.29 33.02 31.88 29.06 27.73 30.92 33.55 32.05 32.39 32.16 35.07 37.14 38.99 40.48 39.50 39.31 36.91 36.81
46.69 47.04 47.22 47.19 47.18 40.72 35.28 35.47 40.63 40.02 28.15 28.30 31.66 30.71 31.59 33.36 27.97 29.23 34.37 32.44 27.99 24.12 23.53 20.32 24.98 33.25 30.50 31.10 29.68 29.83 28.11 28.20 28.13 30.58 32.74 28.41 28.65 31.61 33.80 36.04 38.18 38.93 39.92 39.91 38.62
46.68 46.78 46.84 46.85 39.90 36.24 35.06 38.73 40.52 39.96 20.23 20.69 25.86 29.88 33.24 33.34 27.22 36.16 36.74 32.33 28.73 22.16 25.03 21.93 26.47 24.96 24.22 26.80 30.50 25.49 31.52 30.49 29.61 28.12 22.60 30.19 20.94 29.62 33.66 33.75 36.60 39.53 39.80 38.63 36.37
46.38 46.52 46.51 46.62 38.62 33.69 36.59 39.75 41.38 33.12 0.07 22.53 25.76 37.06 32.62 27.66 27.59 28.71 35.95 32.64 24.62 24.17 26.36 20.45 23.95 25.44 23.97 25.70 32.14 28.70 32.35 29.97 30.05 28.07 27.11 26.76 23.68 26.87 31.21 30.31 33.78 38.08 40.30 39.24 40.54
46.01 46.11 46.43 40.95 36.92 37.45 39.50 39.23 33.46 10.13 -4.34 18.78 25.33 25.06 24.34 26.63 26.58 28.82 28.74 33.28 33.11 27.61 27.32 25.05 30.18 31.83 30.56 32.43 33.68 33.93 30.52 29.94 29.12 27.54 19.68 23.98 24.04 23.72 25.67 30.26 33.49 37.18 39.77 40.39 41.44
45.83 45.77 44.21 40.34 32.12 37.24 38.20 29.87 7.41 0.57 18.61 14.12 19.70 23.00 23.21 21.29 23.37 25.17 24.21 20.00 20.69 16.61 12.90 23.87 23.72 27.64 30.16 25.69 29.30 29.31 27.65 19.62 17.71 18.15 17.15 25.29 22.76 25.31 28.20 34.49 35.66 36.20 36.84 39.43 40.88
45.70 45.20 41.22 38.65 37.44 36.82 31.97 16.48 -2.44 4.56 10.64 22.63 22.14 22.16 19.02 22.76 20.84 18.67 20.01 19.06 24.80 24.99 20.15 18.74 12.55 20.86 29.05 25.54 22.04 25.33 26.64 20.04 13.41 14.22 15.81 23.37 18.32 24.86 33.10 35.84 31.88 32.94 34.29 37.40 37.39
44.79 36.16 34.02 35.09 38.99 34.89 25.98 3.10 3.10 12.58 21.85 20.19 20.15 15.28 15.72 21.89 22.29 16.25 16.08 18.42 21.43 26.71 18.36 17.77 15.93 27.18 27.75 30.07 28.13 23.71 21.91 28.42 20.33 2.34 7.69 14.46 21.27 28.18 28.82 29.74 32.40 33.95 33.16 36.07 36.47
34.00 30.70 30.37 36.30 36.82 29.94 17.17 11.87 8.98 23.76 24.07 21.45 14.61 19.50 15.05 17.05 18.41 17.64 16.79 21.53 25.26 29.40 30.39 22.55 14.63 26.32 28.48 31.15 30.25 27.74 30.27 22.30 23.22 14.85 12.95 13.65 14.04 18.37 19.85 26.63 29.56 30.10 30.29 31.17 31.80
30.62 23.66 31.10 37.32 32.73 21.54 7.88 5.92 17.20 25.27 25.41 20.67 18.60 17.46 18.76 18.76 20.78 18.49 17.42 24.45 27.95 26.98 28.30 23.60 20.65 19.94 29.61 22.63 19.08 25.49 23.50 21.46 24.56 22.29 14.31 13.55 17.14 20.02 24.37 24.16 23.31 25.14 27.46 26.66 28.34
34.22 18.70 31.12 34.05 17.79 8.80 12.59 11.89 25.83 22.69 25.14 22.95 24.53 22.71 21.62 21.49 20.46 18.33 18.81 22.89 28.77 28.36 19.34 25.30 22.52 13.90 20.45 27.70 27.86 25.97 23.06 23.73 16.22 10.13 13.00 11.27 12.67 13.25 11.50 12.94 15.78 21.37 25.83 25.48 24.63
30.48 22.49 31.69 31.91 16.21 11.00 12.97 16.54 21.14 20.14 20.81 16.06 22.08 24.98 25.74 22.80 18.46 18.93 22.29 27.51 28.37 25.42 22.07 25.35 19.72 14.81 17.76 24.91 28.14 23.44 22.38 22.95 19.34 16.37 12.95 11.48 13.07 11.39 10.57 16.07 19.67 21.12 23.06 22.83 23.64
30.35 21.09 20.59 27.51 25.11 20.65 17.50 12.57 10.66 23.41 21.24 24.54 23.28 25.65 21.96 17.97 19.34 17.89 21.50 26.15 27.63 26.44 31.63 29.30 22.46 20.07 14.83 19.05 24.12 22.15 24.96 26.20 24.72 15.68 10.61 15.27 15.39 15.32 18.54 17.50 18.54 18.29 21.75 20.58 19.87
30.90 23.38 18.88 20.05 19.09 20.52 14.60 16.52 17.47 11.14 20.32 23.77 18.75 20.75 20.88 17.69 13.34 8.39 18.11 22.46 23.65 27.29 24.52 20.41 12.60 20.50 21.50 17.54 20.61 21.60 18.71 18.97 22.31 23.85 22.29 13.60 16.54 19.16 22.15 25.31 25.10 14.96 21.34 19.56 21.30
28.13 26.04 26.33 18.37 23.69 21.52 19.36 13.92 18.46 19.61 17.01 18.57 18.65 21.59 22.05 19.43 20.15 18.17 21.22 21.62 21.22 21.57 19.44 19.03 15.97 17.11 15.06 18.65 20.35 17.21 16.58 18.14 17.79 12.96 8.72 10.60 22.04 21.04 19.55 26.04 23.28 27.97 24.93 17.23 19.44
35.28 34.07 28.43 22.69 20.36 16.17 16.08 18.45 19.50 21.89 23.24 24.37 23.05 21.92 18.44 21.39 24.48 26.87 28.11 26.95 25.75 22.82 21.33 21.56 18.36 13.63 9.51 15.13 17.76 10.58 15.29 16.30 17.76 17.97 16.72 13.50 18.54 20.61 17.66 20.35 21.34 21.54 24.95 23.79 26.02
MSLP
1024.05 1023.78 1023.32 1022.87 1022.37 1021.89 1021.37 1021.00 1020.59 1020.12 1019.60 1019.02 1018.42 1018.08 1017.38 1016.94 1016.01 1015.65 1014.43 1012.41 1012.04 1011.92 1011.78 1011.90 1011.84 1011.96 1012.01 1012.33 1012.50 1012.59 1012.77 1011.65 1010.68 1010.10 1008.53 1007.77 1007.77 1007.33 1007.07 1007.44 1007.40 1007.73 1008.04 1008.44 1008.50
1024.26 1023.85 1023.24 1022.68 1022.21 1021.77 1021.31 1020.95 1020.57 1019.96 1019.32 1018.87 1018.39 1017.76 1017.17 1016.62 1015.92 1014.14 1011.49 1011.14 1011.60 1011.65 1011.65 1011.96 1012.08 1012.29 1012.43 1011.85 1012.09 1012.03 1011.43 1010.05 1008.68 1008.31 1007.98 1007.66 1007.46 1007.34 1007.30 1007.27 1007.59 1007.73 1008.16 1008.58 1009.08
1024.49 1024.05 1023.51 1022.97 1022.49 1021.98 1021.42 1020.99 1020.53 1019.89 1019.23 1018.74 1018.23 1017.53 1017.04 1016.59 1015.17 1012.05 1010.60 1010.01 1011.23 1011.09 1011.31 1011.80 1012.04 1012.29 1012.33 1011.88 1011.28 1010.71 1009.13 1009.07 1008.32 1007.99 1007.81 1007.77 1007.57 1007.29 1007.31 1007.35 1007.28 1007.37 1007.64 1008.65 1009.18
1024.57 1024.18 1023.58 1023.00 1022.39 1021.85 1021.27 1020.73 1020.28 1019.67 1019.06 1018.40 1017.79 1017.26 1016.86 1017.09 1015.25 1011.22 1010.74 1010.62 1011.12 1011.09 1010.90 1011.57 1012.06 1011.96 1011.90 1011.40 1010.71 1010.02 1008.71 1008.61 1008.04 1008.01 1007.85 1007.70 1007.21 1007.27 1007.21 1006.85 1006.78 1006.91 1007.71 1008.68 1008.91
1024.50 1024.26 1023.52 1022.79 1022.23 1021.67 1021.07 1020.50 1019.91 1019.32 1018.69 1017.88 1017.31 1016.80 1016.56 1016.38 1013.65 1011.85 1011.53 1011.33 1011.29 1011.33 1011.43 1011.63 1011.60 1011.76 1011.30 1010.75 1010.62 1009.52 1009.02 1008.31 1008.02 1007.78 1007.44 1007.81 1007.42 1007.33 1007.04 1006.79 1006.79 1007.21 1007.75 1008.15 1008.16
1024.58 1024.16 1023.34 1022.75 1022.19 1021.67 1021.03 1020.33 1019.54 1018.86 1018.19 1017.37 1016.67 1016.69 1016.72 1015.25 1012.81 1012.15 1012.27 1012.13 1011.77 1011.51 1011.17 1011.11 1010.81 1010.76 1010.54 1010.27 1010.16 1008.91 1008.71 1008.36 1008.15 1007.70 1007.53 1007.65 1007.25 1007.67 1006.68 1006.60 1007.02 1007.33 1007.62 1007.85 1007.94
1024.43 1023.77 1023.12 1022.57 1022.00 1021.37 1020.79 1020.03 1019.20 1018.50 1017.76 1016.90 1016.11 1015.97 1015.62 1012.30 1012.06 1011.77 1012.15 1011.90 1011.68 1011.81 1011.37 1010.82 1010.65 1010.71 1010.14 1010.09 1009.14 1008.93 1008.91 1008.39 1007.78 1007.72 1007.51 1007.56 1006.63 1005.74 1006.47 1006.41 1006.79 1007.25 1007.21 1007.26 1007.46
1024.26 1023.60 1023.09 1022.65 1022.05 1021.34 1020.55 1019.72 1018.71 1017.90 1016.96 1016.09 1015.29 1015.05 1013.93 1012.06 1012.01 1011.93 1011.61 1011.47 1011.48 1011.00 1010.77 1010.37 1010.11 1010.07 1010.12 1009.76 1009.34 1009.02 1008.82 1007.94 1006.80 1007.65 1007.30 1007.51 1003.60 1004.21 1005.14 1005.85 1005.89 1006.39 1006.75 1006.97 1006.98
1024.08 1023.57 1023.04 1022.48 1021.77 1020.87 1020.19 1019.20 1018.21 1017.22 1016.19 1015.63 1015.25 1014.79 1013.07 1011.78 1011.77 1011.35 1011.58 1012.09 1011.56 1010.79 1010.13 1009.79 1009.69 1009.48 1009.57 1009.59 1009.95 1008.82 1007.44 1006.96 1007.05 1006.64 1006.92 1006.71 1003.27 1003.72 1004.37 1004.86 1004.94 1005.30 1005.88 1006.15 1006.17
1023.81 1023.35 1022.80 1022.09 1021.32 1020.55 1019.65 1018.78 1017.53 1016.64 1016.25 1015.52 1014.81 1015.22 1012.96 1011.92 1011.55 1011.55 1011.65 1011.50 1011.53 1010.88 1010.31 1009.61 1009.28 1008.73 1008.62 1008.41 1007.57 1007.28 1007.50 1006.95 1006.40 1006.00 1006.23 1005.87 1003.05 1003.99 1003.73 1003.98 1003.98 1004.44 1004.91 1005.23 1005.29
1023.83 1023.18 1022.54 1021.86 1021.08 1020.28 1019.44 1018.89 1018.35 1017.46 1017.21 1017.47 1015.85 1014.90 1013.27 1012.11 1012.52 1011.95 1011.72 1012.17 1011.97 1011.81 1010.60 1009.84 1009.40 1007.10 1006.55 1006.55 1006.48 1006.96 1007.01 1006.70 1006.14 1005.79 1005.37 1004.61 1002.98 1003.68 1003.72 1003.68 1003.65 1003.69 1004.15 1004.38 1004.31
1023.70 1023.05 1022.34 1021.61 1020.80 1020.02 1020.01 1020.20 1019.98 1019.53 1016.70 1016.02 1014.54 1013.99 1012.98 1012.41 1012.67 1011.14 1011.43 1011.93 1011.94 1011.03 1010.60 1010.16 1008.24 1006.50 1006.17 1006.42 1006.39 1006.31 1006.41 1006.03 1006.00 1006.00 1005.56 1004.75 1003.16 1003.72 1003.52 1003.07 1002.97 1003.08 1003.10 1003.44 1003.63
1023.37 1022.81 1022.08 1021.32 1020.43 1020.02 1020.32 1019.97 1019.32 1019.24 1018.02 1014.73 1013.15 1012.67 1011.91 1011.84 1012.01 1010.79 1010.92 1010.84 1010.90 1010.55 1010.08 1009.61 1006.30 1006.60 1006.59 1006.02 1006.14 1005.69 1005.94 1005.87 1005.71 1005.90 1005.33 1005.23 1003.36 1003.68 1003.29 1002.95 1002.54 1002.29 1002.16 1002.41 1002.62
1023.17 1022.58 1021.87 1021.11 1020.52 1020.44 1020.09 1019.47 1019.15 1019.16 1017.93 1014.68 1012.79 1011.58 1011.40 1011.36 1011.21 1010.26 1010.01 1010.22 1009.96 1009.60 1008.88 1008.20 1006.53 1007.03 1006.36 1005.65 1005.23 1004.51 1004.79 1005.36 1005.92 1006.28 1005.18 1005.34 1003.08 1003.06 1002.72 1002.59 1002.39 1001.49 1001.60 1001.63 1001.93
1022.82 1022.25 1021.60 1020.92 1020.94 1020.61 1019.86 1019.25 1019.01 1019.33 1018.39 1014.06 1012.23 1010.87 1011.22 1011.60 1010.52 1009.15 1008.96 1009.35 1008.95 1008.37 1008.50 1006.68 1005.62 1005.28 1005.18 1004.13 1004.22 1003.44 1004.04 1004.75 1005.44 1005.81 1005.84 1005.14 1004.15 1002.00 1002.36 1002.04 1001.36 1000.81 1000.63 1000.77 1000.84
1022.55 1021.86 1021.15 1020.57 1020.80 1020.10 1019.69 1019.37 1019.60 1020.37 1018.17 1014.78 1012.90 1011.89 1011.75 1010.03 1009.76 1009.51 1008.34 1007.92 1007.56 1007.60 1006.81 1005.34 1004.77 1004.18 1003.75 1003.88 1003.63 1003.55 1004.29 1004.71 1005.10 1005.19 1004.09 1004.23 1004.28 1000.60 1001.79 1001.16 1000.72 1000.40 999.86 999.80 1000.01
1022.23 1021.42 1020.73 1020.49 1020.35 1019.81 1019.76 1020.23 1020.98 1020.62 1017.70 1015.82 1013.93 1013.11 1012.26 1011.35 1009.97 1009.82 1008.81 1008.34 1008.01 1007.52 1006.03 1004.40 1003.44 1002.60 1003.44 1004.26 1004.48 1004.10 1003.48 1003.94 1003.94 1003.62 1002.60 1002.69 1003.39 1001.54 1000.34 1000.15 999.61 999.63 999.72 999.44 999.36
1021.87 1020.93 1020.06 1020.04 1019.93 1019.91 1020.35 1021.53 1021.95 1020.07 1018.47 1016.73 1014.92 1013.15 1012.93 1011.55 1010.50 1010.00 1009.46 1008.51 1007.39 1007.17 1006.08 1004.49 1002.94 1002.36 1002.21 1002.69 1003.32 1002.84 1003.10 1002.47 1002.79 1003.29 1003.26 1002.82 1001.93 1000.47 1000.04 999.99 999.84 999.72 999.49 999.33 999.27
1021.45 1020.93 1020.54 1020.07 1019.80 1020.11 1021.21 1022.00 1021.28 1019.62 1018.12 1016.89 1015.07 1013.57 1011.89 1011.64 1011.51 1010.55 1009.50 1008.55 1007.41 1006.90 1006.53 1005.15 1003.13 1001.22 1001.37 1001.04 1001.86 1002.26 1002.49 1002.15 1003.04 1003.80 1004.11 1002.90 1002.00 1000.86 1000.36 1000.22 1000.01 999.84 999.94 999.47 999.37
1022.09 1021.64 1020.84 1019.93 1019.93 1020.56 1021.50 1021.73 1020.72 1018.93 1017.89 1017.12 1016.05 1014.46 1012.81 1011.60 1011.53 1010.90 1009.51 1007.95 1007.19 1006.75 1006.41 1005.74 1003.97 1001.59 1000.78 1000.91 1001.19 1001.36 1001.12 1002.64 1003.10 1002.75 1003.48 1003.39 1002.72 1001.87 1001.52 1001.27 1000.70 1000.43 1000.41 1000.44 1000.13
1022.38 1022.05 1020.23 1020.05 1020.19 1021.15 1021.96 1021.61 1019.94 1018.26 1017.77 1016.97 1015.31 1014.01 1012.86 1011.65 1010.85 1010.54 1009.37 1007.68 1006.99 1006.26 1006.00 1005.66 1004.93 1002.34 1001.42 1000.92 1000.78 1001.33 1001.22 1001.83 1002.35 1003.01 1003.48 1004.07 1003.55 1002.49 1002.10 1002.00 1002.14 1001.71 1001.52 1001.96 1001.74
1022.22 1022.18 1020.25 1020.05 1021.13 1022.14 1022.12 1020.82 1019.45 1017.87 1016.92 1016.22 1014.86 1013.56 1012.41 1011.45 1010.93 1010.37 1009.22 1007.91 1006.57 1006.62 1006.14 1005.40 1004.67 1003.35 1001.75 1001.13 1001.00 1000.70 1000.94 1001.59 1002.77 1003.86 1004.07 1004.23 1003.14 1002.72 1003.37 1003.28 1003.42 1003.32 1003.06 1002.86 1002.89
1021.47 1021.31 1020.24 1020.28 1021.35 1022.01 1021.57 1020.40 1019.51 1018.04 1016.71 1015.97 1014.96 1013.64 1012.74 1011.73 1011.04 1010.22 1009.06 1007.53 1006.98 1006.90 1006.22 1005.73 1004.80 1003.84 1001.89 1001.69 1001.16 1001.27 1001.55 1001.63 1002.44 1003.05 1003.70 1004.64 1003.78 1003.45 1004.12 1003.91 1004.13 1004.35 1004.00 1003.76 1003.85
1021.96 1021.61 1021.03 1020.74 1021.10 1021.08 1021.42 1020.23 1019.13 1017.74 1016.51 1015.69 1014.59 1013.46 1013.05 1012.15 1011.50 1010.49 1009.30 1007.95 1007.29 1006.98 1006.29 1005.73 1005.40 1004.56 1004.07 1003.29 1002.72 1002.10 1002.08 1002.29 1002.65 1003.41 1004.22 1004.46 1004.06 1004.72 1005.19 1005.65 1005.04 1004.91 1004.62 1004.59 1004.85
1021.76 1021.33 1020.98 1020.85 1020.78 1020.83 1021.21 1020.12 1018.65 1017.63 1016.44 1015.40 1014.29 1013.74 1013.37 1012.26 1011.46 1010.64 1009.55 1008.22 1007.45 1006.94 1006.69 1006.62 1006.31 1005.29 1004.30 1003.86 1003.38 1003.38 1003.87 1003.84 1003.56 1003.63 1004.62 1005.14 1005.39 1006.40 1006.56 1006.09 1005.67 1005.27 1004.99 1005.28 1005.52
1021.91 1021.50 1020.74 1020.50 1020.44 1020.48 1020.37 1019.34 1018.16 1017.15 1016.70 1015.31 1014.75 1013.58 1013.05 1012.47 1011.76 1010.04 1009.70 1009.01 1008.11 1007.37 1007.61 1007.35 1006.87 1005.79 1004.92 1004.38 1004.25 1004.80 1004.97 1004.70 1004.94 1005.21 1005.42 1005.76 1005.80 1006.48 1006.46 1005.59 1005.22 1005.08 1005.36 1005.58 1006.10
1021.23 1021.01 1020.91 1020.35 1020.21 1020.25 1019.52 1018.41 1017.40 1016.88 1015.32 1014.83 1014.13 1013.16 1011.94 1011.01 1010.33 1009.41 1008.54 1008.02 1007.72 1007.63 1007.72 1007.73 1007.19 1006.91 1006.17 1005.64 1005.50 1006.08 1006.95 1006.68 1006.90 1006.96 1007.04 1007.28 1007.49 1006.74 1006.28 1006.44 1006.45 1006.15 1006.20 1005.99 1006.02
Wind_Speed
22 22 21 22 22 23 23 23 23 24 24 24 24 24 24 26 26 16 13 14 10 19 8 4 1 4 5 3 5 4 3 7 11 12 13 2 5 4 4 3 2 7 6 3 15
21 22 23 24 24 24 24 25 25 25 25 25 25 24 25 26 20 17 16 18 19 17 5 5 3 3 3 7 5 6 7 12 14 15 6 4 2 2 2 5 4 2 1 3 15
23 22 24 24 24 24 25 25 26 27 26 26 25 25 23 20 10 9 8 2 21 17 12 10 6 5 6 4 7 8 18 12 13 9 8 7 4 4 4 3 9 10 7 11 13
21 23 24 23 24 24 25 26 27 28 28 28 26 23 22 6 9 2 4 10 11 6 2 6 7 6 6 12 6 8 10 19 12 9 3 5 3 4 7 9 2 8 7 11 16
21 23 23 24 25 26 27 27 28 29 29 30 26 22 11 5 16 11 23 20 14 6 5 9 8 5 8 6 7 14 2 7 17 16 9 6 9 8 8 11 8 5 9 16 17
21 23 22 24 25 26 27 28 30 29 31 30 29 22 10 23 6 5 8 14 9 6 7 9 8 10 6 9 14 3 13 22 12 8 6 12 13 6 7 9 7 8 12 11 15
23 23 23 24 25 27 28 30 30 30 32 29 29 15 16 30 7 19 19 12 10 11 13 14 12 6 4 5 8 14 18 16 16 8 7 5 19 22 9 11 9 10 11 14 18
23 23 23 25 25 27 29 31 31 32 28 29 24 8 15 1 7 10 14 13 6 10 14 15 12 16 8 5 5 4 4 18 17 13 8 11 27 8 19 18 20 12 10 10 15
22 22 23 25 26 27 30 31 32 28 27 18 8 2 11 5 3 5 3 11 20 11 6 12 7 9 5 15 10 7 18 13 11 5 8 17 21 14 10 16 21 17 14 13 15
22 23 24 26 26 28 30 31 26 19 8 5 4 3 6 8 4 18 18 15 10 16 15 10 8 11 13 14 23 26 12 4 7 10 15 14 29 12 14 19 18 14 12 14 13
24 24 25 26 27 29 23 6 8 5 7 10 19 23 28 27 8 16 18 15 14 13 20 19 16 23 28 26 25 23 17 16 12 7 10 23 28 19 13 7 10 10 9 12 15
23 24 26 26 28 29 4 3 9 10 16 15 23 24 26 18 19 27 6 5 4 8 11 13 26 33 27 20 23 25 24 23 10 10 9 15 23 9 10 14 18 16 17 12 9
24 26 26 27 28 8 1 10 7 7 9 19 12 12 7 6 9 12 8 3 8 10 15 21 29 16 28 28 26 26 25 25 21 5 14 3 24 17 8 9 9 8 14 13 15
25 26 26 29 10 3 8 6 6 1 6 10 4 7 2 3 6 7 8 6 6 11 12 17 26 26 25 22 30 29 28 24 22 14 19 11 21 18 18 13 12 19 15 15 10
24 26 26 25 11 3 8 8 4 2 6 7 6 2 7 5 7 23 8 5 21 19 6 12 14 17 21 30 24 27 23 23 22 17 17 9 11 13 9 10 16 21 18 13 17
24 26 28 10 2 7 6 6 3 6 10 8 5 10 17 25 19 9 8 5 7 12 13 27 15 9 12 5 15 20 7 16 13 14 22 20 18 21 8 14 13 17 21 13 16
24 27 23 4 5 3 4 4 6 4 8 10 21 22 21 28 15 4 5 5 5 5 5 6 19 24 14 12 10 6 12 9 12 13 16 17 16 24 9 24 29 24 13 15 14
24 27 9 4 4 1 3 6 3 6 8 12 18 27 21 11 6 4 7 8 3 5 7 4 9 6 11 22 10 10 12 9 11 5 13 6 11 13 23 26 7 9 13 14 9
19 4 5 3 1 3 4 3 8 6 6 14 26 8 6 5 5 5 4 4 4 2 3 6 7 8 10 5 20 8 12 2 1 2 5 4 5 8 5 10 15 18 12 19 10
3 4 5 4 3 4 3 7 5 6 18 17 19 9 12 13 6 3 3 5 3 4 1 4 10 5 2 5 6 5 7 7 10 6 9 3 3 6 3 14 14 12 9 7 8
3 4 4 3 3 4 3 8 8 14 14 5 13 18 15 11 6 3 5 7 5 6 2 3 4 7 5 6 9 9 5 4 2 2 2 1 5 9 10 8 9 9 6 6 10
2 3 2 2 3 2 3 6 11 17 11 11 10 15 14 5 4 3 5 4 7 6 8 5 4 5 8 2 4 3 5 6 4 5 2 5 9 2 1 3 2 7 9 7 2
4 3 2 3 3 2 6 9 6 5 7 5 6 8 16 7 6 4 4 6 8 8 6 3 3 6 7 0 1 3 2 4 4 3 7 6 8 4 4 6 4 5 7 3 0
3 4 5 1 1 3 4 8 5 6 11 7 13 12 14 10 2 8 9 7 12 13 14 4 3 4 6 8 4 3 2 2 12 3 3 6 7 8 9 7 8 5 5 3 1
1 5 5 5 4 5 2 5 10 7 5 8 6 6 19 9 5 4 5 12 5 5 6 3 3 4 13 9 3 6 7 7 3 2 4 5 2 4 10 8 6 5 5 3 2
3 4 1 3 2 2 4 6 12 8 3 9 6 20 16 12 14 21 15 11 9 4 5 4 5 6 7 6 7 5 12 8 9 6 5 5 2 9 9 11 7 7 5 3 2
2 2 3 2 3 1 5 6 13 16 11 10 17 20 12 14 10 18 18 18 16 12 7 4 3 5 5 2 3 6 9 7 3 7 3 8 6 13 11 11 11 12 8 5 3
Wind_Direction
9 5 3 1 358 354 352 349 346 343 340 337 336 333 331 327 322 305 259 234 206 242 285 294 191 194 146 213 189 138 177 202 209 217 227 61 179 197 171 212 214 187 159 303 138
4 360 359 357 354 351 349 346 342 339 337 334 332 330 330 329 316 277 248 242 243 255 248 231 252 190 230 192 207 172 212 218 223 222 227 229 186 224 203 166 230 225 241 117 145
357 356 355 352 348 345 344 342 338 335 333 330 328 327 328 340 312 252 310 259 234 259 244 231 236 199 223 205 202 205 233 226 236 238 224 227 234 210 184 244 220 215 173 165 162
356 354 350 346 343 341 340 338 334 331 329 326 324 323 322 332 280 320 69 71 3 349 205 171 213 204 211 219 224 239 219 231 238 240 227 215 196 211 181 228 228 237 162 169 175
352 348 345 340 340 338 337 334 331 328 327 323 322 327 335 274 250 291 307 327 322 255 209 213 215 196 228 206 224 249 241 225 231 239 225 256 228 227 222 243 247 113 155 186 189
350 344 341 340 338 335 332 330 327 324 324 317 314 316 299 264 269 304 343 322 300 269 243 206 212 218 258 230 224 228 224 244 252 242 222 231 254 187 234 247 238 173 194 198 203
342 342 339 337 335 332 327 327 323 319 315 307 305 299 266 252 290 304 303 282 288 272 279 253 236 215 189 262 240 248 263 269 244 243 242 188 261 240 226 254 243 219 212 202 211
342 337 335 333 330 327 324 324 320 315 306 303 306 277 256 209 223 276 280 290 280 264 245 263 213 230 228 309 308 231 214 241 242 232 217 168 253 225 218 230 244 211 221 211 222
336 335 333 332 329 327 325 321 317 312 305 313 312 223 264 315 246 278 84 329 314 299 281 263 218 225 169 224 250 222 242 237 253 215 208 199 261 224 204 219 240 230 219 218 226
331 334 330 329 327 325 323 325 307 310 320 309 278 306 276 260 284 326 319 322 325 305 297 253 234 216 216 205 225 230 228 219 190 190 210 234 249 236 210 216 225 227 217 228 227
334 328 328 327 325 324 327 338 357 331 36 271 256 261 277 278 289 292 288 295 281 268 250 254 244 226 217 217 228 240 239 239 232 240 196 224 247 235 226 235 232 234 217 224 234
326 328 327 327 325 321 18 1 300 290 303 254 253 255 253 273 288 284 254 174 262 265 290 253 251 231 231 225 223 228 238 246 259 229 239 251 257 240 221 233 243 239 242 230 231
330 331 328 326 323 342 0 290 293 337 286 293 258 256 254 197 229 269 189 202 224 275 253 240 250 242 235 233 233 235 237 240 240 215 238 233 266 251 241 235 252 245 235 237 224
331 328 327 327 329 297 294 279 304 120 286 271 269 270 183 244 264 226 237 243 225 238 260 241 260 242 253 256 221 234 224 232 238 235 242 170 263 245 235 235 236 247 236 240 223
329 326 326 326 298 301 277 320 317 47 314 273 296 242 333 270 274 297 243 187 250 247 221 249 231 231 241 236 223 228 217 216 223 233 243 216 254 243 215 231 228 242 250 228 233
329 324 322 321 279 247 309 317 45 47 258 307 301 328 325 312 298 275 266 219 242 255 250 247 243 214 200 295 223 230 195 215 216 216 234 229 221 253 204 223 236 240 248 233 233
327 322 319 309 257 319 351 27 23 140 321 293 319 318 309 299 296 273 296 284 250 288 265 271 231 240 248 248 252 253 193 214 218 214 235 218 221 240 218 232 235 237 242 238 224
327 319 296 253 293 297 54 46 105 246 258 302 301 304 280 276 264 274 287 282 271 241 279 292 319 164 186 202 211 206 238 204 209 191 225 160 209 230 222 246 235 242 238 254 232
331 300 308 278 87 80 61 51 216 244 297 308 315 301 285 276 274 340 237 250 249 235 292 303 285 305 208 185 192 190 223 334 332 2 61 202 282 310 173 232 235 246 240 255 251
331 334 284 294 100 63 82 247 229 256 303 305 291 251 287 294 300 330 300 244 273 248 202 275 288 310 265 113 205 178 164 192 217 215 214 245 264 220 226 216 229 248 237 285 296
34 355 261 17 67 55 188 231 270 288 305 274 286 286 284 292 237 239 270 286 236 301 304 254 239 293 281 192 180 184 217 170 116 169 88 49 267 213 235 215 236 263 301 295 281
301 312 291 78 25 321 243 209 293 295 299 273 265 271 277 286 277 262 253 253 344 335 308 222 269 269 253 200 250 181 234 180 132 223 220 154 266 245 183 270 289 309 307 305 4
249 237 336 93 262 269 290 281 252 285 290 302 277 289 320 314 302 238 273 285 324 344 297 314 283 307 337 40 26 145 197 160 140 103 198 143 262 18 7 3 336 294 305 326 344
303 287 308 351 160 232 279 267 284 265 275 265 282 287 329 309 254 285 302 310 329 298 307 307 309 311 297 309 297 272 54 244 213 189 177 214 269 350 354 341 320 321 341 331 17
239 245 202 274 261 229 161 267 296 311 241 305 293 315 324 306 280 257 287 297 288 300 353 55 272 284 296 289 291 42 22 341 322 72 224 241 139 37 335 315 310 294 333 350 334
286 306 230 277 289 287 272 262 291 295 282 300 282 309 310 294 286 294 293 292 276 313 27 336 274 358 300 348 13 65 13 17 41 355 22 338 359 13 310 342 349 348 333 333 313
230 250 273 322 287 203 248 256 292 311 294 277 295 304 298 280 260 273 278 270 257 276 298 294 325 351 275 33 51 23 349 12 82 30 341 24 314 327 336 344 4 357 344 296 266